Location: Newark
(47.5500°N, 8.6167°E)
Time: 14:25:08
(UTC+00:00)

Envisat - Visible Passes

Search period start: 24 January 2020 00:00
Search period end: 03 February 2020 00:00
Orbit: 764 x 766 km, 98.1° (Epoch: 23 January)

Date Brightness Start Highest point End Pass type
(mag) Time Alt. Az. Time Alt. Az. Time Alt. Az.
24 Jan 5.5 05:10:52 10° NE 05:14:55 23° E 05:18:54 10° SE visible
24 Jan 5.1 18:07:54 10° SSW 18:12:15 28° W 18:16:39 10° NW visible
25 Jan 6.4 04:36:23 10° ENE 04:37:39 11° E 04:38:55 10° E visible
25 Jan 3.2 06:12:23 10° NNE 06:17:31 79° ESE 06:22:36 10° S visible
25 Jan 3.7 17:30:16 10° S 17:35:16 59° W 17:40:19 10° NNW visible
26 Jan 4.6 05:35:51 10° NNE 05:40:36 38° E 05:45:19 10° SSE visible
26 Jan 3.0 16:53:27 10° SSE 16:58:28 69° ENE 17:03:33 10° N visible
26 Jan 5.9 18:34:42 10° SW 18:38:01 17° W 18:41:20 10° NW visible
27 Jan 5.9 04:59:56 10° NE 05:03:30 19° E 05:07:02 10° SE visible
27 Jan 4.7 17:56:16 10° SSW 18:00:53 35° W 18:05:32 10° NNW visible
28 Jan 3.6 06:01:08 10° NNE 06:06:12 64° ESE 06:11:14 10° S visible
28 Jan 3.3 17:18:53 10° S 17:23:57 73° WSW 17:29:03 10° NNW visible
29 Jan 5.0 05:24:44 10° NNE 05:29:14 31° E 05:33:42 10° SSE visible
29 Jan 5.6 18:22:45 10° SW 18:26:36 21° W 18:30:27 10° NW visible
30 Jan 6.1 04:49:09 10° NE 04:52:04 15° E 04:54:57 10° ESE visible
30 Jan 4.3 17:44:42 10° S 17:49:32 43° W 17:54:23 10° NNW visible
31 Jan 4.0 05:49:54 10° NNE 05:54:52 51° E 05:59:48 10° S visible
31 Jan 3.0 17:07:34 10° SSE 17:12:39 89° W 17:17:46 10° NNW visible
31 Jan 6.3 18:50:15 10° WSW 18:52:25 13° W 18:54:36 10° WNW visible
01 Feb 5.4 05:13:39 10° NE 05:17:51 25° E 05:22:00 10° SSE visible
01 Feb 5.3 18:10:58 10° SSW 18:15:11 26° W 18:19:27 10° NW visible
02 Feb 6.3 04:38:42 10° ENE 04:40:36 12° E 04:42:30 10° ESE visible
02 Feb 3.1 06:15:17 10° NNE 06:20:25 85° ESE 06:25:30 10° SSW visible
02 Feb 3.9 17:33:13 10° S 17:38:11 54° W 17:43:11 10° NNW visible
